Weather History for South Bend, IN

Change the Weather History Date:

Wednesday, August 21, 2013

  Actual Average Record
Temperature  
Mean Temperature 77 °F 71 °F  
Max Temperature 88 °F 81 °F 100 °F (1916)
Min Temperature 66 °F 62 °F 43 °F (1950)
Degree Days  
Heating Degree Days 0 0  
Month to date heating degree days 15 0  
Since 1 June heating degree days 66 49  
Since 1 July heating degree days 29 5  
Cooling Degree Days 12 6  
Month to date cooling degree days 89 148  
Year to date cooling degree days 579 622  
Since 1 June cooling degree days 483 566  
Growing Degree Days 27 (Base 50)    
Moisture  
Dew Point 64 °F    
Average Humidity 65    
Maximum Humidity 87    
Minimum Humidity 40    
Precipitation  
Precipitation 0.00 in 0.11 in 3.46 in (1966)
Month to date precipitation 2.64 2.58  
Year to date precipitation 26.53 24.09  
Snow  
Snow 0.00 in - - ()
Month to date snowfall 0.0  
Since 1 June snowfall 0.0  
Snow Depth 0.00 in    
Sea Level Pressure  
Sea Level Pressure 30.08 in    
Wind  
Wind Speed 6 mph (SSW)    
Max Wind Speed 15 mph    
Max Gust Speed 20 mph    
Visibility 9 miles    
Events      
T = Trace of Precipitation, MM = Missing Value Source: NWS Daily Summary

Daily Weather History Graph

Daily Weather History Graph

Search for Another Location

Airport:

Trip Planner

Search our weather history database for the weather conditions in past years. The results will help you decide how hot, cold, wet, or windy it might be!

Date:

Astronomy

Aug. 21, 2013 Rise Set
Actual Time 7:00 AM EDT 8:35 PM EDT
Civil Twilight 6:30 AM EDT 9:05 PM EDT
Nautical Twilight 5:55 AM EDT 9:40 PM EDT
Astronomical Twilight 5:17 AM EDT 10:18 PM EDT
Moon 8:42 PM EDT (8/21) 7:40 AM EDT (8/21)
Length of Visible Light 14h 34m
Length of Day
13h 35m
Full, 100% of the Moon is Illuminated
Aug 21
Full
Aug 28
Last Quarter
Sep 5
New
Sep 12
First Quarter
Sep 19
Full

Hourly Weather History & Observations

Time (EDT) Temp. Heat Index Dew Point Humidity Pressure Visibility Wind Dir Wind Speed Gust Speed Precip Events Conditions
12:54 AM 72.0 °F - 64.0 °F 76% 30.10 in 10.0 mi Calm Calm - N/A   Clear
1:54 AM 72.0 °F - 63.0 °F 73% 30.09 in 10.0 mi SSE 5.8 mph - N/A   Clear
2:54 AM 71.1 °F - 63.0 °F 75% 30.09 in 10.0 mi South 3.5 mph - N/A   Clear
3:54 AM 71.1 °F - 63.0 °F 75% 30.09 in 10.0 mi South 4.6 mph - N/A   Clear
4:54 AM 69.1 °F - 63.0 °F 81% 30.09 in 10.0 mi Calm Calm - N/A   Clear
5:54 AM 68.0 °F - 63.0 °F 84% 30.09 in 8.0 mi Calm Calm - N/A   Clear
6:54 AM 66.9 °F - 63.0 °F 87% 30.11 in 7.0 mi South 3.5 mph - N/A   Clear
7:54 AM 68.0 °F - 64.0 °F 87% 30.12 in 5.0 mi Calm Calm - N/A   Clear
8:54 AM 71.1 °F - 66.0 °F 84% 30.13 in 8.0 mi SSW 5.8 mph - N/A   Clear
9:54 AM 75.0 °F - 66.0 °F 73% 30.12 in 10.0 mi SW 5.8 mph - N/A   Clear
10:54 AM 79.0 °F - 66.9 °F 66% 30.12 in 10.0 mi SSE 6.9 mph - N/A   Clear
11:54 AM 82.0 °F 84.5 °F 66.9 °F 60% 30.12 in 10.0 mi South 10.4 mph - N/A   Clear
12:54 PM 84.0 °F 86.5 °F 66.9 °F 56% 30.11 in 10.0 mi SSW 6.9 mph 17.3 mph N/A   Clear
1:54 PM 84.9 °F 87.1 °F 66.0 °F 53% 30.09 in 10.0 mi WSW 10.4 mph - N/A   Scattered Clouds
2:54 PM 86.0 °F 87.3 °F 64.0 °F 48% 30.08 in 10.0 mi SW 10.4 mph - N/A   Partly Cloudy
3:54 PM 87.1 °F 86.7 °F 60.1 °F 40% 30.06 in 10.0 mi WSW 10.4 mph 19.6 mph N/A   Partly Cloudy
4:54 PM 87.1 °F 87.5 °F 62.1 °F 43% 30.04 in 10.0 mi SW 11.5 mph - N/A   Partly Cloudy
5:54 PM 86.0 °F 86.8 °F 63.0 °F 46% 30.03 in 10.0 mi WSW 9.2 mph - N/A   Clear
6:54 PM 84.9 °F 85.9 °F 63.0 °F 48% 30.02 in 10.0 mi SSW 8.1 mph - N/A   Clear
7:54 PM 82.9 °F 84.4 °F 64.0 °F 53% 30.00 in 10.0 mi South 8.1 mph - N/A   Clear
8:54 PM 80.1 °F 81.9 °F 64.9 °F 60% 30.02 in 10.0 mi South 5.8 mph - N/A   Clear
9:54 PM 78.1 °F - 66.0 °F 66% 30.06 in 10.0 mi SSW 3.5 mph - N/A   Scattered Clouds
10:54 PM 75.9 °F - 66.0 °F 71% 30.05 in 10.0 mi SSW 6.9 mph - N/A   Clear
11:54 PM 75.9 °F - 64.9 °F 69% 30.03 in 10.0 mi SW 6.9 mph - N/A   Clear